Temperature
21 18 17 18 18 19 20 20 20 21 23 23 22 23 23 24 24 23 22 22 22 22 23 24 24 24 24 23 23 22 22 22 21 20 20 19 19 19 18 18 18 17 17 17
18 17 18 19 20 21 20 20 20 21 23 24 22 22 22 22 22 22 22 21 20 20 22 23 23 23 23 23 23 22 22 21 21 20 20 19 19 18 18 18 17 17 17 16
18 19 20 21 20 21 21 20 21 21 22 22 22 22 21 21 20 20 19 18 18 19 20 21 21 22 22 22 22 22 21 21 20 20 20 19 18 18 17 17 17 16 16 16
18 20 21 21 21 21 20 22 22 22 21 20 21 20 20 19 18 17 16 16 16 16 17 18 19 20 20 21 21 21 21 21 20 20 19 19 18 17 17 16 16 15 15 15
19 20 20 21 22 22 22 23 23 23 21 20 20 20 19 18 18 16 15 15 15 15 15 16 17 18 19 19 20 20 20 20 19 19 18 18 18 17 16 16 15 15 14 14
19 21 21 21 23 23 23 22 21 18 17 18 20 20 18 17 17 16 15 14 14 14 14 15 15 16 17 18 18 18 19 18 18 18 17 17 17 16 16 15 14 14 13 13
19 20 21 22 22 22 21 18 17 18 17 17 19 19 17 16 16 15 14 13 13 13 13 14 14 15 15 16 16 17 17 17 17 17 16 16 16 15 14 14 14 13 13 12
18 18 20 22 21 21 20 18 17 18 18 18 19 18 16 15 14 14 13 12 12 12 12 13 13 13 14 15 15 15 16 15 15 15 15 15 14 14 13 13 12 12 12 11
18 18 21 22 22 22 21 19 18 17 18 18 18 17 16 15 14 13 12 12 12 12 12 12 12 12 13 13 13 14 14 14 14 13 13 13 13 13 12 11 11 11 11 10
18 18 19 21 21 21 20 19 16 16 17 17 18 17 16 15 14 13 12 11 11 11 11 11 11 12 12 12 12 12 12 12 12 12 12 12 11 11 11 10 10 10 9 9
17 17 18 19 18 19 19 18 16 15 16 16 16 16 16 15 13 12 12 11 11 11 11 11 11 10 11 11 11 11 11 11 11 11 11 10 10 10 10 9 9 8 8 8
16 15 16 17 18 19 18 17 16 15 16 16 15 15 14 13 12 12 11 11 10 10 10 10 10 10 10 10 10 10 10 10 10 9 9 9 9 9 8 8 8 7 7 7
16 14 14 15 16 17 17 18 17 15 14 14 15 14 13 12 12 11 10 10 10 10 9 9 9 9 9 9 9 9 9 9 8 8 8 8 8 8 7 7 7 6 6 6
16 14 14 15 15 16 16 17 17 15 14 14 14 14 13 12 11 11 10 10 9 9 9 9 9 8 8 8 8 8 8 8 8 7 7 7 7 7 6 6 6 6 5 5
14 14 15 15 16 16 16 16 16 15 15 14 14 14 13 12 11 10 10 9 9 8 8 8 8 8 8 8 7 7 7 7 7 7 7 6 6 6 5 5 5 5 5 4
13 14 14 15 16 16 15 15 15 15 14 14 13 13 12 11 10 9 9 9 8 8 8 8 7 7 7 7 7 7 6 6 6 6 6 5 5 5 5 4 4 4 4 4
13 13 13 13 15 15 13 13 13 13 13 13 13 12 11 10 10 9 8 8 8 8 7 7 7 7 7 6 6 6 6 6 5 5 5 5 4 4 4 4 4 3 3 3
14 13 11 12 13 13 13 13 13 13 12 12 11 11 10 9 8 8 8 8 8 7 7 7 6 6 6 6 6 6 5 5 5 5 4 4 4 4 4 4 3 3 3 3
13 13 12 11 12 13 13 13 13 12 11 11 10 9 8 8 8 7 7 7 7 7 7 6 6 6 6 5 5 5 5 5 5 4 4 4 4 4 4 3 3 3 3 3
13 12 11 12 12 12 12 13 13 12 10 10 10 9 8 9 8 7 7 7 7 6 6 6 6 6 5 5 5 5 5 5 4 4 4 4 4 4 3 3 3 3 3 3
12 12 11 11 11 11 12 13 13 12 10 10 10 9 9 8 8 7 7 6 6 6 6 6 5 5 5 5 5 5 5 5 4 4 4 4 4 4 3 3 3 3 3 3
12 11 11 10 10 11 12 12 11 10 10 10 9 9 8 7 7 6 6 6 6 6 5 5 5 5 5 5 5 5 5 4 4 4 4 4 4 4 3 3 3 3 3 2
12 11 10 10 10 10 12 11 11 11 10 9 9 8 8 7 6 6 6 6 6 5 5 5 5 5 5 5 5 5 5 5 4 4 4 4 4 4 3 3 3 3 2 2
13 12 10 10 10 10 11 11 11 11 10 9 9 8 8 7 6 6 6 6 6 5 5 5 5 5 5 5 5 5 5 5 5 4 4 4 4 4 3 3 3 3 2 2
13 12 10 10 10 10 10 10 10 10 9 9 8 8 7 7 6 6 6 6 6 6 5 5 5 5 5 5 5 5 5 5 5 5 4 4 4 4 3 3 3 2 2 1
11 11 9 9 10 9 9 10 10 9 9 8 8 7 7 7 6 6 6 6 6 6 6 5 5 5 5 5 5 5 5 5 5 5 4 4 4 4 4 3 3 2 2 1
Wind_Speed
2 2 4 8 8 8 7 8 11 13 10 5 10 13 12 6 4 5 5 5 6 5 4 5 5 6 6 6 9 10 13 13 12 10 8 7 5 5 5 5 7 8 8 8
4 5 11 9 8 8 9 10 12 13 10 5 8 10 6 0 3 5 7 7 6 5 6 5 5 6 6 6 7 9 10 11 11 9 6 4 6 5 5 5 7 8 8 7
7 9 8 8 10 10 10 10 11 11 9 7 1 3 2 4 8 10 9 8 8 9 8 7 7 5 6 6 6 7 6 8 8 9 8 8 6 5 4 5 5 6 8 9
7 10 9 10 11 9 10 10 9 7 3 5 3 1 5 3 8 11 11 11 10 10 9 9 8 7 6 4 4 4 5 6 7 8 10 11 8 6 4 5 5 6 9 9
7 6 7 9 12 9 9 8 5 3 1 2 4 2 5 3 7 9 11 12 12 11 11 11 10 9 9 9 8 7 7 7 6 7 7 9 7 7 7 7 8 7 7 10
9 7 6 8 9 6 5 2 5 5 5 2 4 3 3 2 5 9 11 12 12 12 12 12 12 12 13 12 11 10 11 10 9 9 8 9 11 10 11 9 9 7 6 7
7 7 5 4 4 6 2 5 4 5 4 5 4 3 1 7 11 13 12 11 11 12 12 12 13 13 13 14 13 13 14 13 12 12 11 10 11 11 10 9 9 8 6 6
3 6 5 2 3 3 2 8 7 4 4 5 3 3 5 12 14 14 13 11 11 12 11 12 13 13 14 15 14 14 15 15 14 14 13 12 12 10 9 10 8 8 7 7
2 5 6 4 2 3 1 3 8 6 2 1 1 5 7 10 12 12 12 11 11 10 11 12 12 13 14 15 14 15 16 16 15 15 15 14 13 13 12 10 9 8 8 8
2 4 6 6 5 4 3 3 5 5 3 2 2 3 5 10 10 10 10 9 9 9 10 11 12 13 13 14 14 16 16 16 15 15 14 14 14 13 12 11 11 10 9 9
2 1 6 5 4 3 5 5 4 3 4 5 2 2 1 11 13 12 10 9 9 9 10 11 11 12 13 14 15 15 15 15 15 15 14 14 13 13 12 11 10 10 9 9
3 4 2 4 3 1 5 3 4 3 2 3 3 0 5 10 11 12 12 11 10 10 10 11 12 12 13 14 14 14 14 14 14 13 14 13 13 12 12 11 10 9 10 8
3 5 4 7 8 7 5 3 2 4 3 1 2 3 6 9 10 10 11 11 11 11 11 11 11 12 13 13 13 13 13 13 12 13 13 13 12 11 11 10 9 9 9 9
4 5 4 2 4 4 4 5 3 4 3 1 2 7 7 9 11 10 11 11 11 11 11 12 12 11 11 12 12 12 12 11 12 12 12 12 11 10 10 10 10 9 9 9
5 4 3 3 3 3 7 9 7 3 2 3 3 6 9 9 11 11 11 12 12 12 12 12 11 10 10 11 11 11 11 10 10 11 11 10 9 9 9 9 8 8 7 7
4 3 4 4 3 6 11 13 9 7 5 5 7 5 7 10 10 10 11 11 12 12 12 11 11 11 10 10 10 10 9 8 9 10 9 8 8 8 8 7 7 7 6 5
2 3 3 3 4 4 8 9 7 6 5 2 3 4 11 11 10 9 9 11 11 11 11 11 10 10 9 8 8 8 8 7 8 7 7 7 7 6 5 5 6 5 4 4
2 2 2 1 5 4 1 2 5 8 8 7 10 10 10 11 9 8 7 10 10 10 10 9 9 8 7 7 7 7 7 7 7 7 6 5 5 5 5 5 4 3 2 2
4 4 3 3 3 3 1 3 2 3 5 4 10 12 12 13 10 7 7 9 9 9 9 8 7 7 7 7 6 7 6 6 6 6 5 5 5 5 4 4 2 1 1 1
6 6 4 3 2 1 2 7 3 5 3 1 7 11 10 7 5 4 6 10 10 10 8 7 6 7 7 5 6 7 6 6 5 4 4 4 4 4 4 2 1 1 1 1
5 5 4 3 2 1 4 8 3 2 3 3 5 7 6 2 4 9 10 9 9 9 8 7 7 6 5 4 6 6 5 4 4 4 4 4 3 3 3 2 2 2 3 3
3 3 2 3 3 2 5 4 3 3 3 5 5 6 9 11 12 11 10 9 9 8 7 7 6 5 4 4 6 6 4 3 3 4 3 2 2 2 3 4 3 4 5 5
3 4 4 3 3 3 2 4 4 6 6 5 6 9 13 12 11 10 9 8 7 7 6 5 6 5 4 4 5 5 2 2 3 3 1 1 1 2 3 4 4 4 4 4
2 4 5 4 3 4 6 7 6 7 7 8 10 11 11 11 10 10 8 7 6 6 5 5 6 6 4 3 3 3 2 3 3 2 1 0 1 2 3 3 4 4 3 3
1 4 5 4 4 6 5 6 8 10 11 12 10 9 9 11 10 9 7 6 5 4 4 5 6 5 4 2 2 2 2 3 2 1 0 0 1 2 3 3 3 3 2 3
1 4 5 5 6 6 4 5 9 10 10 11 11 9 8 9 9 8 7 5 5 5 5 5 5 4 4 3 2 2 2 3 2 1 1 1 2 3 4 4 3 3 1 2
Wind_Direction
253 110 229 235 216 214 249 276 284 280 276 264 244 246 255 240 202 175 164 155 152 164 165 161 162 152 152 153 159 182 180 176 168 164 159 153 148 134 121 113 115 119 121 123
358 257 237 236 246 248 259 271 278 287 294 285 244 241 250 348 165 154 146 135 125 100 89 92 104 110 128 147 166 182 176 170 170 166 153 140 130 113 108 104 89 93 101 104
221 246 245 242 255 256 262 248 258 270 310 343 59 313 351 34 65 71 66 76 86 90 91 86 85 101 115 130 157 168 165 160 156 145 130 120 107 104 97 93 86 75 89 93
247 251 254 250 249 237 259 251 248 265 320 312 54 280 297 66 60 62 60 61 66 71 78 80 76 67 66 73 90 113 134 142 142 142 150 149 148 142 127 114 102 82 76 79
258 257 247 249 248 235 237 258 262 264 212 336 6 117 292 48 79 72 63 58 57 58 62 63 61 59 51 54 66 74 85 97 111 124 139 136 126 118 113 107 99 86 74 73
255 264 237 237 252 240 239 340 8 42 66 344 260 164 288 343 121 104 75 62 57 56 57 55 53 53 53 54 58 67 72 74 85 95 103 115 119 122 121 115 106 92 80 74
309 300 281 263 301 316 70 83 28 357 10 257 263 131 56 55 91 102 90 71 61 57 55 53 54 54 54 53 56 63 69 67 71 80 84 95 105 108 109 108 104 100 88 79
328 304 300 285 213 235 204 136 154 196 224 279 344 114 95 87 87 88 86 79 69 61 56 55 54 56 57 57 58 66 69 68 68 75 78 80 87 91 91 89 94 96 93 86
290 290 305 303 254 157 156 174 171 153 220 284 290 120 115 102 95 91 88 81 74 69 66 63 59 60 61 62 61 67 72 72 71 76 79 77 79 85 89 89 88 89 92 93
192 284 314 323 22 32 129 146 88 115 164 258 280 167 173 150 128 110 100 92 84 79 74 71 69 69 68 70 70 70 72 75 75 76 79 82 80 82 85 86 83 80 78 80
72 69 330 10 41 22 36 40 69 121 153 164 224 263 273 159 143 127 115 106 98 88 82 80 76 73 74 73 72 73 73 74 74 76 79 80 79 79 78 79 78 79 75 72
18 96 340 305 289 77 101 102 108 125 269 175 168 34 48 119 123 126 123 115 106 99 93 88 85 81 78 76 75 75 75 76 76 78 79 79 78 78 79 78 75 77 77 73
44 77 28 354 355 8 31 23 94 141 130 134 146 132 94 109 116 119 119 115 108 100 93 87 82 81 81 80 79 77 77 78 77 79 80 78 76 76 76 74 71 71 72 70
81 73 113 174 268 297 330 4 31 106 134 177 160 140 139 136 134 127 121 114 108 102 97 93 87 82 81 81 81 81 78 78 79 79 79 77 75 75 75 73 71 71 74 76
67 58 3 299 302 14 32 19 32 80 142 160 154 141 154 150 139 130 126 121 116 110 103 99 95 91 88 85 82 82 81 79 81 82 80 78 77 76 75 72 70 69 72 80
51 55 8 339 1 58 48 26 33 51 60 91 103 92 119 119 117 120 123 122 116 112 108 106 103 98 93 91 91 89 86 83 84 85 84 83 81 79 76 73 70 69 69 72
22 61 39 328 322 73 41 7 26 43 34 88 108 122 127 121 118 121 125 123 122 122 118 113 108 103 100 95 95 91 88 85 83 85 84 83 85 82 78 78 74 72 71 76
129 72 88 10 36 67 103 345 65 74 49 67 100 112 110 106 95 86 103 115 115 115 112 107 103 99 94 93 91 89 84 82 82 81 80 81 85 83 79 75 71 64 63 76
120 116 79 72 69 110 25 351 354 92 55 71 114 114 114 114 92 71 80 101 108 108 107 105 105 103 99 97 98 93 85 84 85 86 87 88 88 87 84 78 63 42 54 30
57 75 86 69 85 108 310 314 318 115 98 90 128 135 141 138 124 128 109 104 103 102 103 105 101 97 96 96 95 92 92 94 98 103 102 97 98 104 105 102 70 29 42 5
26 31 55 68 90 62 308 324 6 126 201 173 143 145 148 120 122 126 118 109 108 105 105 104 101 99 106 105 94 93 101 111 121 110 96 89 94 117 117 88 57 47 41 31
106 79 50 78 79 269 314 17 77 162 126 117 111 108 110 110 112 116 117 115 112 108 105 104 100 98 99 105 104 105 117 144 122 108 97 84 80 102 104 81 60 51 51 44
100 159 153 137 181 230 29 87 109 118 111 112 115 119 123 121 122 120 118 118 117 114 110 104 106 100 92 107 118 120 150 139 117 110 114 123 79 67 82 97 90 63 54 57
30 93 94 83 89 91 81 85 87 97 106 112 121 123 122 121 123 121 121 120 118 117 120 118 115 112 113 122 121 138 149 132 123 122 155 170 107 78 76 92 101 93 76 62
44 82 89 101 124 90 69 92 101 100 106 112 114 114 120 123 125 125 124 125 126 125 127 127 130 133 146 144 136 158 153 128 116 112 315 331 145 132 109 91 92 115 130 153
335 139 143 183 188 146 147 132 119 116 121 124 120 111 114 121 123 122 123 128 129 129 132 135 144 152 167 159 160 184 172 143 129 74 37 83 123 132 132 122 79 50 114 126
Height
1490 1497 1502 1499 1498 1499 1499 1501 1502 1492 1481 1483 1483 1480 1474 1473 1476 1478 1480 1480 1481 1483 1485 1487 1490 1493 1498 1502 1506 1509 1512 1516 1519 1522 1525 1527 1530 1532 1534 1536 1537 1539 1541 1542
1496 1499 1492 1490 1491 1493 1496 1501 1498 1488 1478 1478 1479 1477 1473 1473 1475 1477 1478 1479 1481 1482 1483 1485 1487 1491 1495 1499 1502 1505 1509 1512 1516 1518 1521 1524 1527 1530 1532 1533 1535 1536 1538 1539
1498 1492 1486 1489 1491 1493 1493 1497 1494 1491 1481 1476 1478 1484 1480 1478 1478 1480 1483 1483 1483 1483 1483 1484 1486 1489 1492 1495 1499 1503 1507 1510 1513 1516 1519 1522 1525 1526 1529 1530 1532 1533 1535 1535
1492 1485 1485 1487 1488 1488 1494 1483 1483 1483 1489 1495 1487 1504 1489 1484 1485 1486 1488 1487 1487 1486 1485 1485 1486 1489 1491 1494 1498 1501 1505 1508 1511 1513 1516 1517 1519 1522 1524 1527 1528 1530 1531 1533
1489 1482 1483 1485 1481 1479 1482 1475 1478 1479 1485 1494 1492 1502 1499 1489 1492 1494 1494 1493 1492 1490 1489 1488 1488 1489 1491 1494 1496 1500 1503 1506 1508 1511 1513 1515 1517 1519 1521 1524 1526 1528 1529 1530
1482 1476 1477 1476 1472 1472 1472 1475 1479 1487 1496 1508 1496 1501 1505 1497 1495 1497 1499 1499 1498 1496 1495 1494 1493 1493 1494 1495 1497 1499 1501 1504 1506 1509 1512 1514 1515 1517 1519 1522 1524 1525 1527 1528
1485 1477 1472 1471 1474 1472 1474 1492 1509 1509 1517 1513 1494 1499 1508 1499 1496 1498 1502 1503 1503 1501 1500 1499 1498 1497 1497 1497 1498 1500 1502 1504 1506 1508 1511 1513 1515 1517 1519 1521 1522 1525 1526 1527
1495 1492 1475 1470 1474 1478 1478 1489 1511 1519 1518 1510 1495 1503 1506 1503 1503 1503 1505 1506 1506 1506 1505 1504 1503 1501 1501 1501 1502 1502 1504 1505 1507 1508 1511 1513 1514 1517 1519 1521 1522 1523 1525 1526
1494 1490 1473 1468 1467 1471 1478 1485 1487 1502 1503 1509 1506 1503 1506 1505 1507 1508 1509 1510 1510 1510 1509 1508 1507 1506 1505 1505 1506 1506 1507 1508 1509 1511 1513 1515 1516 1519 1521 1523 1524 1525 1525 1527
1486 1490 1478 1471 1468 1470 1474 1479 1493 1504 1513 1517 1508 1506 1507 1505 1507 1509 1512 1513 1514 1514 1513 1513 1512 1512 1511 1511 1510 1511 1511 1512 1513 1513 1515 1517 1519 1521 1523 1525 1526 1527 1528 1528
1484 1492 1487 1480 1482 1483 1482 1486 1492 1501 1504 1514 1517 1514 1498 1500 1504 1508 1513 1515 1516 1517 1517 1517 1517 1516 1516 1515 1514 1514 1515 1515 1516 1518 1519 1521 1522 1524 1526 1527 1528 1529 1530 1532
1485 1493 1496 1489 1481 1478 1482 1487 1494 1507 1507 1506 1513 1516 1502 1502 1505 1508 1512 1515 1517 1518 1519 1519 1519 1520 1520 1519 1519 1519 1520 1520 1521 1523 1524 1525 1526 1528 1529 1530 1531 1532 1533 1534
1487 1497 1506 1502 1496 1488 1487 1487 1489 1497 1505 1508 1513 1516 1508 1508 1510 1512 1514 1517 1519 1520 1521 1522 1522 1522 1522 1523 1524 1524 1524 1525 1526 1527 1528 1528 1530 1531 1532 1533 1534 1535 1535 1536
1486 1499 1507 1513 1507 1497 1494 1490 1488 1495 1507 1508 1506 1508 1510 1511 1512 1515 1517 1519 1521 1522 1523 1524 1525 1526 1526 1526 1527 1528 1528 1530 1531 1531 1532 1532 1533 1534 1534 1535 1536 1536 1537 1537
1490 1501 1499 1498 1494 1493 1494 1493 1491 1494 1497 1503 1503 1504 1507 1510 1513 1516 1518 1520 1522 1524 1525 1526 1527 1529 1529 1530 1530 1531 1532 1533 1534 1534 1535 1535 1536 1537 1537 1538 1538 1539 1539 1539
1495 1500 1500 1499 1494 1495 1499 1499 1497 1496 1498 1500 1503 1508 1508 1512 1514 1517 1520 1522 1524 1526 1527 1528 1529 1531 1532 1532 1533 1534 1535 1536 1537 1537 1538 1539 1539 1540 1540 1541 1541 1541 1541 1541
1499 1502 1506 1508 1499 1498 1512 1510 1504 1504 1503 1503 1507 1510 1510 1514 1517 1519 1522 1523 1525 1527 1529 1530 1532 1533 1534 1535 1536 1537 1538 1539 1540 1541 1541 1542 1542 1543 1543 1543 1543 1543 1543 1542
1499 1502 1509 1511 1509 1518 1519 1509 1507 1508 1509 1507 1508 1511 1513 1517 1520 1523 1524 1525 1527 1529 1531 1533 1535 1536 1537 1538 1539 1540 1541 1542 1543 1544 1545 1545 1545 1545 1545 1545 1545 1544 1544 1543
1495 1501 1509 1515 1516 1516 1513 1509 1509 1511 1515 1513 1512 1515 1517 1519 1522 1526 1527 1528 1530 1532 1534 1536 1538 1539 1540 1542 1543 1544 1545 1546 1547 1547 1548 1548 1548 1547 1547 1547 1546 1545 1544 1543
1497 1501 1510 1514 1517 1521 1519 1510 1507 1511 1518 1517 1515 1516 1519 1520 1524 1530 1530 1531 1532 1534 1537 1539 1541 1542 1543 1545 1546 1547 1547 1548 1549 1550 1550 1550 1550 1549 1548 1548 1547 1546 1545 1543
1508 1510 1515 1518 1520 1520 1515 1509 1508 1517 1520 1517 1517 1517 1520 1521 1524 1529 1531 1533 1535 1537 1540 1542 1544 1545 1546 1548 1549 1549 1550 1551 1552 1552 1552 1551 1551 1550 1550 1549 1548 1546 1545 1543
1512 1516 1518 1520 1525 1526 1514 1511 1514 1517 1515 1517 1518 1519 1521 1523 1526 1530 1533 1535 1538 1540 1543 1545 1546 1548 1549 1550 1551 1552 1552 1553 1553 1553 1553 1553 1552 1551 1550 1549 1548 1546 1544 1542
1509 1512 1516 1520 1524 1518 1515 1514 1515 1515 1516 1518 1519 1521 1523 1525 1529 1532 1536 1538 1541 1543 1545 1547 1549 1550 1552 1553 1553 1554 1554 1554 1554 1554 1554 1553 1553 1552 1551 1549 1548 1546 1544 1542
1508 1508 1513 1518 1519 1518 1517 1517 1517 1518 1518 1520 1522 1524 1526 1528 1532 1535 1538 1541 1544 1546 1548 1550 1551 1552 1554 1555 1555 1555 1555 1555 1555 1555 1554 1554 1553 1552 1551 1550 1548 1546 1544 1542
1508 1509 1515 1519 1519 1520 1520 1519 1520 1520 1522 1523 1526 1528 1530 1532 1535 1538 1541 1544 1546 1548 1551 1552 1554 1555 1556 1556 1557 1557 1556 1556 1556 1555 1554 1554 1553 1551 1550 1550 1548 1546 1544 1542
1509 1511 1515 1518 1516 1518 1521 1521 1522 1522 1524 1526 1528 1531 1534 1536 1538 1541 1544 1547 1549 1551 1553 1554 1556 1556 1557 1557 1557 1558 1557 1557 1556 1555 1554 1553 1552 1551 1550 1549 1548 1546 1544 1542